Location: Cran-Gévrier
(45.9039°N, 6.1012°E)
Time: 04:48:48
(UTC+00:00)

ATLAS 5 CENTAUR R/B - Pass Details

Date: 09 February 2023
Orbit: 460 x 1178 km, 63.3° (Epoch: 24 March)

Event Time Altitude Azimuth Distance (km) Brightness Sun altitude
Rises 18:07:10 0° 324° (NW) 2,872 5.4 -13.4°
Reaches altitude 10° 18:10:38 10° 354° (N) 2,119 4.3 -14.0°
Maximum altitude 18:12:47 13° 21° (NNE) 2,034 3.9 -14.4°
Enters shadow 18:14:17 11° 39° (NE) 2,184 3.9 -14.6°
